Home   Weather   Porto Alegre   Past weeks

Flag for Brazil Past Weather in Porto Alegre, Rio Grande do Sul, Brazil — Yesterday and Last 2 Weeks

Now
59 °F

Clear.


Feels Like: 59 °F
Forecast: 59 / 74 °F
Wind: 1 mph from East

Location: Porto Alegre Aero-Porto

Current Time: Apr 24, 2017 at 6:34:43 am

Latest Report: Apr 24, 2017 at 6:00 am


Visibility: 10 mi

Pressure: 30.04 "Hg

Humidity: 94%

Dew Point: 57 °F

Location of Porto AlegreLocation

Past Weather in Porto Alegre — Graph

°F

Porto Alegre Temperature Yesterday

Maximum temperature yesterday: 75 °F (at 3:00 pm)
Minimum temperature yesterday: 52 °F (at 6:00 am)
Average temperature yesterday: 64 °F

High & Low Weather Summary for the Past Weeks

 TemperatureHumidityPressure
High88 °F (Apr 10, 3:00 pm)100% (Apr 14, 5:00 am)30.21 "Hg (Apr 14, 5:00 am)
Low52 °F (Apr 23, 6:00 am)41% (Apr 12, 4:00 pm)29.71 "Hg (Apr 21, 4:00 am)
Average69 °F80%30.02 "Hg
* Reported Apr 9 5:00 am — Apr 24 5:00 am, Porto Alegre, Weather by CustomWeather, © 2017

Note: Actual official high and low records may vary slightly from our data, if they occured in-between our weather recording intervals... More about our weather records

Advertising

Porto Alegre Weather History for the Previous 24 Hours

Scroll right to see more
 ConditionsComfort  
Time TempWeatherWind HumidityBarometerVisibility
5:00 am
Mon, Apr 24
59 °FClear.2 mph94%30.04 "Hg10 mi
4:00 am61 °FClear.3 mph88%30.04 "Hg10 mi
3:00 am61 °FClear.3 mph88%30.07 "Hg10 mi
2:00 am61 °FClear.3 mph88%30.07 "Hg10 mi
1:00 am61 °FClear.5 mph83%30.09 "Hg10 mi
12:00 am59 °FClear.6 mph88%30.09 "Hg10 mi
11:00 pm
Sun, Apr 23
63 °FClear.8 mph77%30.09 "Hg10 mi
10:00 pm64 °FClear.9 mph73%30.12 "Hg10 mi
9:00 pm64 °FClear.10 mph73%30.12 "Hg10 mi
8:00 pm66 °FClear.12 mph68%30.09 "Hg10 mi
7:00 pm68 °FClear.10 mph64%30.09 "Hg10 mi
6:00 pm70 °FClear.10 mph53%30.09 "Hg10 mi
5:00 pm72 °FPassing clouds.12 mph57%30.09 "HgN/A
4:00 pm73 °FPassing clouds.10 mph53%30.09 "HgN/A
3:00 pm75 °FPassing clouds.5 mph41%30.09 "HgN/A
2:00 pm73 °FScattered clouds.5 mph47%30.12 "HgN/A
1:00 pm73 °FScattered clouds.No wind47%30.15 "HgN/A
12:00 pm72 °FPassing clouds.3 mph53%30.15 "HgN/A
11:00 am70 °FSunny.3 mph64%30.18 "Hg10 mi
10:00 am66 °FSunny.2 mph73%30.18 "Hg10 mi
9:00 am61 °FSunny.No wind94%30.18 "Hg10 mi
8:00 am57 °FClear.3 mph100%30.15 "Hg6 mi
7:00 am54 °FClear.2 mph94%30.12 "Hg6 mi
6:00 am52 °FClear.No wind100%30.12 "Hg6 mi
Weather by CustomWeather, © 2017

See weather overviewHow to use our weather pages